weather.gov     
National Weather Service

Regional Weather Roundup
NWS Homepage
This page is being discontinued on March 12, 2014.
The same data is available at this site. Please update your bookmarks.
Thank you, and we apologize for the inconvenience.
Please send an email to SR-SRH.Webmaster@noaa.gov with any concerns.


Current Version
Previous Version:    01  02  03  04  05  06  07  08  09  10  11  12  13  14  15  16  17  18  19  20  21  22  23  24  25  26  27  28  29  30  
   31  32  33  34  35  36  37  38  39  40  41  42  43  44  45  46  47  48  49  50  51  52  53  54  
[Printable]
292
ASUS43 KGLD 311759
RWRGLD

GOODLAND FORECAST AREA HOURLY WEATHER ROUNDUP
NATIONAL WEATHER SERVICE GOODLAND KS
1200 PM MDT FRI OCT 31 2014

...OFFICIAL OBSERVATIONS...

CITY           SKY/WX    TMP DP  RH WIND       PRES   REMARKS
GOODLAND KS    SUNNY     41  29  62 SE12      30.45F
HILL CITY KS   SUNNY     41  24  51 E8        30.53F
IMPERIAL NEB   SUNNY     39  28  64 SE15      30.45F
MCCOOK NEB     SUNNY     40  23  50 SE9       30.51F
AKRON CO       SUNNY     47  28  47 SE25G35   30.33F
BURLINGTON CO  SUNNY     45  27  49 SE17G24   30.41F
LIMON CO       SUNNY     47  28  47 S26G35    30.34F
$$

...UNOFFICIAL OBSERVATIONS...

CITY           SKY/WX    TMP DP  RH WIND       PRES   REMARKS
COLBY KS       SUNNY     39  32  75 E7        30.48F
NORTON KS      SUNNY     39  18  41 E5        30.51F
SHARON SPRINGS   N/A     42  30  63 SE5G14      N/A
TRENTON NEB      N/A     41  32  70 SE10        N/A
$$




U.S. Dept. of Commerce
NOAA National Weather Service
1325 East West Highway
Silver Spring, MD 20910
E-mail: w-nws.webmaster@noaa.gov
Page last modified: May 16, 2007
NATIONAL WEATHER SERVICE: for Safety, for Work, for Fun - FOR LIFE